Time,TemperatureF,DewpointF,PressureIn,WindDirection,WindDirectionDegrees,WindSpeedMPH,WindSpeedGustMPH,Humidity,HourlyPrecipIn,Conditions,Clouds,dailyrainin,SoftwareType,DateUTC
2013-02-11 00:09:00,47.8,39.0,29.59,WSW,244,16.0,24.0,71,0.00,,,0.00,weatherlink.com 1.10,2013-02-11 06:09:00,
2013-02-11 00:25:00,46.9,39.0,29.59,WSW,244,15.0,19.0,75,0.00,,,0.00,weatherlink.com 1.10,2013-02-11 06:25:00,
2013-02-11 00:40:00,46.4,39.0,29.59,WSW,238,14.0,24.0,74,0.00,,,0.00,weatherlink.com 1.10,2013-02-11 06:40:00,
2013-02-11 00:55:00,45.5,38.0,29.60,WSW,248,13.0,21.0,74,0.00,,,0.00,weatherlink.com 1.10,2013-02-11 06:55:00,
2013-02-11 01:10:00,44.8,36.0,29.59,WSW,249,16.0,22.0,72,0.00,,,0.00,weatherlink.com 1.10,2013-02-11 07:10:00,
2013-02-11 01:25:00,44.1,36.0,29.60,WSW,245,18.0,26.0,72,0.00,,,0.00,weatherlink.com 1.10,2013-02-11 07:25:00,
2013-02-11 01:40:00,43.3,36.0,29.60,WSW,244,20.0,24.0,74,0.00,,,0.00,weatherlink.com 1.10,2013-02-11 07:40:00,
2013-02-11 01:55:00,43.1,35.0,29.61,West,259,17.0,24.0,74,0.00,,,0.00,weatherlink.com 1.10,2013-02-11 07:55:00,
2013-02-11 02:10:00,42.4,35.0,29.62,WSW,250,17.0,27.0,75,0.00,,,0.00,weatherlink.com 1.10,2013-02-11 08:10:00,
2013-02-11 02:25:00,41.6,34.0,29.62,WSW,251,14.0,25.0,73,0.00,,,0.00,weatherlink.com 1.10,2013-02-11 08:25:00,
2013-02-11 02:40:00,41.1,33.0,29.63,West,264,17.0,25.0,74,0.00,,,0.00,weatherlink.com 1.10,2013-02-11 08:40:00,
2013-02-11 02:55:00,40.7,33.0,29.62,WSW,244,16.0,21.0,75,0.00,,,0.00,weatherlink.com 1.10,2013-02-11 08:55:00,
2013-02-11 03:10:00,40.5,33.0,29.62,WSW,249,13.0,22.0,75,0.00,,,0.00,weatherlink.com 1.10,2013-02-11 09:10:00,
2013-02-11 03:25:00,40.3,33.0,29.64,WSW,254,14.0,29.0,75,0.00,,,0.00,weatherlink.com 1.10,2013-02-11 09:25:00,
2013-02-11 03:40:00,39.3,32.0,29.64,West,259,7.0,27.0,75,0.00,,,0.00,weatherlink.com 1.10,2013-02-11 09:40:00,
2013-02-11 03:55:00,38.7,31.0,29.65,West,263,24.0,29.0,75,0.00,,,0.00,weatherlink.com 1.10,2013-02-11 09:55:00,
2013-02-11 04:10:00,38.2,31.0,29.65,West,273,18.0,24.0,75,0.00,,,0.00,weatherlink.com 1.10,2013-02-11 10:10:00,
2013-02-11 04:25:00,37.8,31.0,29.66,West,265,12.0,27.0,77,0.00,,,0.00,weatherlink.com 1.10,2013-02-11 10:25:00,
2013-02-11 04:40:00,37.5,31.0,29.67,WSW,246,21.0,29.0,76,0.00,,,0.00,weatherlink.com 1.10,2013-02-11 10:40:00,
2013-02-11 04:55:00,36.7,29.0,29.67,WSW,256,19.0,32.0,75,0.00,,,0.00,weatherlink.com 1.10,2013-02-11 10:55:00,
2013-02-11 05:10:00,36.3,29.0,29.68,WSW,258,17.0,26.0,75,0.00,,,0.00,weatherlink.com 1.10,2013-02-11 11:10:00,
2013-02-11 05:25:00,35.9,29.0,29.69,West,273,17.0,32.0,75,0.00,,,0.00,weatherlink.com 1.10,2013-02-11 11:25:00,
2013-02-11 05:41:00,35.3,28.0,29.69,WSW,248,15.0,24.0,74,0.00,,,0.00,weatherlink.com 1.10,2013-02-11 11:41:00,
2013-02-11 05:56:00,35.0,28.0,29.69,WSW,253,16.0,22.0,74,0.00,,,0.00,weatherlink.com 1.10,2013-02-11 11:56:00,
2013-02-11 06:11:00,34.9,28.0,29.70,SW,229,11.0,21.0,75,0.00,,,0.00,weatherlink.com 1.10,2013-02-11 12:11:00,
2013-02-11 06:26:00,35.0,27.0,29.71,West,267,14.0,38.0,73,0.00,,,0.00,weatherlink.com 1.10,2013-02-11 12:26:00,
2013-02-11 06:41:00,34.9,26.0,29.72,WSW,241,26.0,31.0,71,0.00,,,0.00,weatherlink.com 1.10,2013-02-11 12:41:00,
2013-02-11 06:56:00,34.8,26.0,29.73,WSW,244,16.0,34.0,71,0.01,,,0.01,weatherlink.com 1.10,2013-02-11 12:56:00,
2013-02-11 07:11:00,34.6,26.0,29.73,SW,236,11.0,25.0,72,0.01,,,0.01,weatherlink.com 1.10,2013-02-11 13:11:00,
2013-02-11 07:25:00,34.5,27.0,29.74,West,260,13.0,20.0,73,0.01,,,0.01,weatherlink.com 1.10,2013-02-11 13:25:00,
2013-02-11 07:40:00,34.5,27.0,29.75,West,259,15.0,27.0,74,0.01,,,0.01,weatherlink.com 1.10,2013-02-11 13:40:00,
2013-02-11 07:55:00,34.4,26.0,29.75,WSW,245,11.0,22.0,72,0.00,,,0.01,weatherlink.com 1.10,2013-02-11 13:55:00,
2013-02-11 08:10:00,34.4,27.0,29.76,West,269,15.0,25.0,73,0.00,,,0.01,weatherlink.com 1.10,2013-02-11 14:10:00,
2013-02-11 08:25:00,34.4,27.0,29.77,WSW,250,12.0,26.0,73,0.00,,,0.01,weatherlink.com 1.10,2013-02-11 14:25:00,
2013-02-11 08:40:00,34.4,27.0,29.77,WSW,249,21.0,26.0,73,0.00,,,0.01,weatherlink.com 1.10,2013-02-11 14:40:00,
2013-02-11 08:55:00,34.2,27.0,29.78,SW,232,14.0,26.0,75,0.00,,,0.01,weatherlink.com 1.10,2013-02-11 14:55:00,
2013-02-11 09:10:00,34.3,27.0,29.78,West,268,8.0,25.0,74,0.00,,,0.01,weatherlink.com 1.10,2013-02-11 15:10:00,
2013-02-11 09:25:00,34.7,26.0,29.79,WSW,254,15.0,26.0,70,0.00,,,0.01,weatherlink.com 1.10,2013-02-11 15:25:00,
2013-02-11 09:41:00,34.4,26.0,29.79,WNW,288,8.0,34.0,71,0.00,,,0.01,weatherlink.com 1.10,2013-02-11 15:41:00,
2013-02-11 09:56:00,34.2,26.0,29.80,West,274,7.0,21.0,72,0.00,,,0.01,weatherlink.com 1.10,2013-02-11 15:56:00,
2013-02-11 10:11:00,34.0,27.0,29.81,WNW,298,9.0,21.0,74,0.00,,,0.01,weatherlink.com 1.10,2013-02-11 16:11:00,
2013-02-11 10:26:00,34.3,27.0,29.82,WSW,250,21.0,24.0,74,0.00,,,0.01,weatherlink.com 1.10,2013-02-11 16:26:00,
2013-02-11 10:41:00,34.7,25.0,29.83,West,268,13.0,31.0,69,0.00,,,0.01,weatherlink.com 1.10,2013-02-11 16:41:00,
2013-02-11 10:56:00,34.5,26.0,29.83,WNW,293,7.0,27.0,71,0.00,,,0.01,weatherlink.com 1.10,2013-02-11 16:56:00,
2013-02-11 11:11:00,34.6,26.0,29.84,NW,325,11.0,29.0,70,0.00,,,0.01,weatherlink.com 1.10,2013-02-11 17:11:00,
2013-02-11 11:26:00,34.6,25.0,29.84,NW,307,9.0,30.0,69,0.00,,,0.01,weatherlink.com 1.10,2013-02-11 17:26:00,
2013-02-11 11:41:00,34.9,25.0,29.83,WSW,253,22.0,26.0,68,0.00,,,0.01,weatherlink.com 1.10,2013-02-11 17:41:00,
2013-02-11 11:56:00,35.1,27.0,29.84,WSW,244,5.0,31.0,71,0.00,,,0.01,weatherlink.com 1.10,2013-02-11 17:56:00,
2013-02-11 12:11:00,35.1,26.0,29.84,West,264,19.0,29.0,69,0.00,,,0.01,weatherlink.com 1.10,2013-02-11 18:11:00,
2013-02-11 12:26:00,34.8,26.0,29.85,West,277,17.0,27.0,69,0.00,,,0.01,weatherlink.com 1.10,2013-02-11 18:26:00,
2013-02-11 12:41:00,34.7,26.0,29.85,WSW,254,21.0,31.0,71,0.00,,,0.01,weatherlink.com 1.10,2013-02-11 18:41:00,
2013-02-11 12:56:00,34.6,25.0,29.86,West,281,7.0,25.0,69,0.00,,,0.01,weatherlink.com 1.10,2013-02-11 18:56:00,
2013-02-11 13:11:00,34.5,26.0,29.86,West,263,14.0,26.0,71,0.00,,,0.01,weatherlink.com 1.10,2013-02-11 19:11:00,
2013-02-11 13:26:00,34.3,27.0,29.86,West,261,15.0,24.0,75,0.00,,,0.01,weatherlink.com 1.10,2013-02-11 19:26:00,
2013-02-11 13:41:00,34.5,27.0,29.86,WSW,242,19.0,23.0,75,0.00,,,0.01,weatherlink.com 1.10,2013-02-11 19:41:00,
2013-02-11 13:56:00,34.4,27.0,29.86,WSW,254,16.0,24.0,73,0.00,,,0.01,weatherlink.com 1.10,2013-02-11 19:56:00,
2013-02-11 14:11:00,34.6,26.0,29.87,West,280,10.0,20.0,71,0.00,,,0.01,weatherlink.com 1.10,2013-02-11 20:11:00,
2013-02-11 14:26:00,34.7,27.0,29.88,WNW,289,27.0,31.0,72,0.00,,,0.01,weatherlink.com 1.10,2013-02-11 20:26:00,
2013-02-11 14:41:00,34.8,27.0,29.87,North,360,12.0,25.0,73,0.00,,,0.01,weatherlink.com 1.10,2013-02-11 20:41:00,
2013-02-11 14:56:00,34.3,27.0,29.89,WNW,302,18.0,23.0,74,0.00,,,0.01,weatherlink.com 1.10,2013-02-11 20:56:00,
2013-02-11 15:11:00,33.8,26.0,29.89,West,279,6.0,27.0,73,0.00,,,0.01,weatherlink.com 1.10,2013-02-11 21:11:00,
2013-02-11 15:26:00,33.8,26.0,29.91,West,281,6.0,22.0,74,0.00,,,0.01,weatherlink.com 1.10,2013-02-11 21:26:00,
2013-02-11 15:41:00,33.5,26.0,29.92,West,271,9.0,21.0,74,0.00,,,0.01,weatherlink.com 1.10,2013-02-11 21:41:00,
2013-02-11 15:57:00,33.4,26.0,29.93,WNW,301,10.0,18.0,75,0.00,,,0.01,weatherlink.com 1.10,2013-02-11 21:57:00,
2013-02-11 16:12:00,33.3,26.0,29.93,West,274,8.0,25.0,73,0.00,,,0.01,weatherlink.com 1.10,2013-02-11 22:12:00,
2013-02-11 16:26:00,33.2,26.0,29.93,WNW,302,6.0,23.0,75,0.00,,,0.01,weatherlink.com 1.10,2013-02-11 22:26:00,
2013-02-11 16:41:00,33.2,26.0,29.95,West,266,12.0,20.0,75,0.00,,,0.01,weatherlink.com 1.10,2013-02-11 22:41:00,
2013-02-11 16:56:00,33.1,26.0,29.94,West,275,12.0,21.0,74,0.00,,,0.01,weatherlink.com 1.10,2013-02-11 22:56:00,
2013-02-11 17:11:00,33.1,25.0,29.95,SW,224,11.0,24.0,72,0.00,,,0.01,weatherlink.com 1.10,2013-02-11 23:11:00,
2013-02-11 17:26:00,33.0,24.0,29.95,WSW,258,10.0,22.0,70,0.00,,,0.01,weatherlink.com 1.10,2013-02-11 23:26:00,
2013-02-11 17:44:00,32.9,24.0,29.97,WNW,282,11.0,17.0,71,0.00,,,0.01,weatherlink.com 1.10,2013-02-11 23:44:00,
2013-02-11 17:56:00,32.9,25.0,29.98,West,280,3.0,18.0,73,0.00,,,0.01,weatherlink.com 1.10,2013-02-11 23:56:00,
2013-02-11 18:11:00,32.9,25.0,29.98,WNW,283,5.0,14.0,73,0.00,,,0.01,weatherlink.com 1.10,2013-02-12 00:11:00,
2013-02-11 18:27:00,32.9,25.0,29.99,West,263,6.0,13.0,74,0.00,,,0.01,weatherlink.com 1.10,2013-02-12 00:27:00,
2013-02-11 18:41:00,33.0,25.0,29.99,West,272,13.0,18.0,73,0.00,,,0.01,weatherlink.com 1.10,2013-02-12 00:41:00,
2013-02-11 18:56:00,33.0,25.0,29.99,WNW,286,5.0,14.0,73,0.00,,,0.01,weatherlink.com 1.10,2013-02-12 00:56:00,
2013-02-11 19:12:00,32.9,25.0,29.99,West,268,3.0,17.0,73,0.00,,,0.01,weatherlink.com 1.10,2013-02-12 01:12:00,
2013-02-11 19:27:00,32.8,25.0,30.00,West,269,9.0,17.0,74,0.00,,,0.01,weatherlink.com 1.10,2013-02-12 01:27:00,
2013-02-11 19:42:00,32.8,25.0,30.00,SW,236,6.0,14.0,74,0.00,,,0.01,weatherlink.com 1.10,2013-02-12 01:42:00,
2013-02-11 19:57:00,32.7,26.0,30.00,WSW,245,6.0,13.0,75,0.00,,,0.01,weatherlink.com 1.10,2013-02-12 01:57:00,
2013-02-11 20:12:00,32.6,25.0,30.00,WSW,239,7.0,12.0,74,0.00,,,0.01,weatherlink.com 1.10,2013-02-12 02:12:00,
2013-02-11 20:27:00,32.5,25.0,30.00,WNW,290,10.0,12.0,75,0.00,,,0.01,weatherlink.com 1.10,2013-02-12 02:27:00,
2013-02-11 20:42:00,32.5,25.0,30.01,West,273,4.0,14.0,75,0.00,,,0.01,weatherlink.com 1.10,2013-02-12 02:42:00,
2013-02-11 20:57:00,32.4,25.0,30.01,WSW,255,12.0,17.0,73,0.00,,,0.01,weatherlink.com 1.10,2013-02-12 02:57:00,
2013-02-11 21:12:00,32.4,25.0,30.01,WNW,286,5.0,17.0,73,0.00,,,0.01,weatherlink.com 1.10,2013-02-12 03:12:00,
2013-02-11 21:29:00,32.3,25.0,30.02,WSW,244,6.0,15.0,73,0.00,,,0.01,weatherlink.com 1.10,2013-02-12 03:29:00,
2013-02-11 21:42:00,32.0,24.0,30.02,West,266,3.0,12.0,73,0.00,,,0.01,weatherlink.com 1.10,2013-02-12 03:42:00,
2013-02-11 21:57:00,31.9,25.0,30.02,WNW,302,5.0,13.0,74,0.00,,,0.01,weatherlink.com 1.10,2013-02-12 03:57:00,
2013-02-11 22:12:00,31.7,25.0,30.02,West,259,7.0,10.0,75,0.00,,,0.01,weatherlink.com 1.10,2013-02-12 04:12:00,
2013-02-11 22:27:00,31.9,25.0,30.02,WNW,285,5.0,15.0,76,0.00,,,0.01,weatherlink.com 1.10,2013-02-12 04:27:00,
2013-02-11 22:42:00,31.9,25.0,30.03,WNW,298,4.0,16.0,76,0.00,,,0.01,weatherlink.com 1.10,2013-02-12 04:42:00,
2013-02-11 22:57:00,31.8,25.0,30.03,SW,236,3.0,14.0,77,0.00,,,0.01,weatherlink.com 1.10,2013-02-12 04:57:00,
2013-02-11 23:12:00,31.8,25.0,30.03,NNW,329,7.0,20.0,76,0.00,,,0.01,weatherlink.com 1.10,2013-02-12 05:12:00,
2013-02-11 23:27:00,31.6,24.0,30.04,West,277,7.0,17.0,74,0.00,,,0.01,weatherlink.com 1.10,2013-02-12 05:27:00,
2013-02-11 23:42:00,31.4,24.0,30.05,SW,235,9.0,14.0,75,0.00,,,0.01,weatherlink.com 1.10,2013-02-12 05:42:00,
2013-02-11 23:57:00,31.3,24.0,30.05,WNW,300,4.0,13.0,75,0.00,,,0.01,weatherlink.com 1.10,2013-02-12 05:57:00,